カタログに戻る

FREGAT DEB

運用中UNKNOWN
NORAD 45878·DEBRIS·🇷🇺 Russia

打ち上げ Jul 18, 2011 から Baikonur Cosmodrome

Loading…

次のパス (今後24時間)

TLE

最新Source: Space-Track

元期: Sep 13, 2026, 20:54 UTC

1 45878U 11037CX  26256.87130355  .00024886  00000-0  32226-2 0  9992
2 45878  51.4183 110.6887 1198970 194.8563 161.3952 12.81217630266347

AllMySatでFREGAT DEBをリアルタイム追跡

Download on the App Store